Regional Weather Roundup
Issued by NWS Green Bay, WI

Home | Current Version | Previous Version | Text Only | Print | Product List | Glossary On
Versions: 1 2 3 4 5 6 7 8 9 10 11 12 13 14 15 16 17 18 19 20 21 22 23 24 25 26 27 28 29 30 31 32 33 34 35 36 37 38 39 40 41 42 43 44 45 46 47 48 49 50
000
ASUS43 KGRB 280259
RWRGRB

NORTH-CENTRAL AND NORTHEAST WISCONSIN REGIONAL WEATHER ROUNDUP
NATIONAL WEATHER SERVICE GREEN BAY WI
900 PM CST SAT DEC 27 2014

WIZ005-009-010>012-018-019-280400-
NORTH CENTRAL WISCONSIN

CITY           SKY/WX    TMP DP  RH WIND       PRES   REMARKS
IRONWOOD       CLOUDY    18  12  79 SW6       29.95S WCI   9
MANITOWISH WTR NOT AVBL
ARBOR VITAE    NOT AVBL
EAGLE RIVER    NOT AVBL
LAND O LAKES   NOT AVBL
RHINELANDER    CLEAR     11   9  92 W7        29.99R WCI   0
PHILLIPS       CLEAR     13  11  91 SW3       29.99F
ANTIGO         NOT AVBL
TOMAHAWK       NOT AVBL
MERRILL        NOT AVBL
$$

WIZ013-073-280400-
NORTHEAST WISCONSIN

CITY           SKY/WX    TMP DP  RH WIND       PRES   REMARKS
IRON MOUNTAIN    N/A     24  18  77 W10       29.95R
MARINETTE      CLOUDY    30  25  80 W9        30.00R
$$

WIZ017-030-035>037-045-280400-
CENTRAL WISCONSIN

CITY           SKY/WX    TMP DP  RH WIND       PRES   REMARKS
MEDFORD        NOT AVBL
WAUSAU         CLEAR     18  14  84 W7        30.03R WCI   9
MOSINEE        CLEAR     18  16  93 W6        30.06R WCI   9
MARSHFIELD     CLEAR     17  13  84 W6        30.05S WCI   9
WISC RAPIDS    CLEAR     21  16  81 W5        30.09S
STEVENS POINT  NOT AVBL
WAUPACA        CLOUDY    29  23  76 W8        30.06S
SHAWANO        MOCLDY    30  22  71 W8        30.04R
CLINTONVILLE   MOCLDY    28  21  74 W8        30.04S
$$

WIZ038-039-048-051-280400-
FOX VALLEY

CITY           SKY/WX    TMP DP  RH WIND       PRES   REMARKS
NWS GREEN BAY  CLOUDY    32  25  75 W14       30.03R
APPLETON       MOCLDY    28  21  74 W17       30.04S
OSHKOSH        CLOUDY    30  23  75 W6        30.05R
FOND DU LAC    CLOUDY    30  22  72 NW9       30.07R
$$

WIZ022-050-052-280400-
EAST CENTRAL WISCONSIN

CITY           SKY/WX    TMP DP  RH WIND       PRES   REMARKS
STURGEON BAY   CLOUDY    32  27  80 W8        30.02R
MANITOWOC      CLOUDY    34  28  80 W14       30.03R
SHEBOYGAN      CLOUDY    31  25  78 W13       30.05R
$$

LMZ563-521-522-541>543-280400-
LAKESHORE

STATION/POSITION TIME  TEMP    WIND        PRES    VSBY  WAVE
                       AIR SEA DIR/SP/G                  HT/PER
                 (UTC) (F)     (DEG/KT/KT) (MB)    (MI)  (FT/S)
SHEBOYGAN LKSHOR 0200   33 38  280/ 12/ 14 1017.6R
KEWAUNEE LKSHORE 0200   33     290/ 10/ 13 1015.4R
NORTHPORT PIER   0200   33     290/  5/  8 1015.2R
SISTER BAY LKSHO 0200          330/ 14/ 14   N/A
CHAMBERS ISLAND  0200   33     290/  3/  4 1015.2S
MENOMINEE LKSHOR 0200   32     260/  9/ 11 1016.2R
$$


USA.gov is the U.S. government's official web portal to all federal, state and local government web resources and services.